Location: *
(47.6569°N, 7.4256°E)
Time: 16:42:35
(UTC+00:00)

Okean-O - Pass Details

Date: 14 December 2019
Orbit: 639 x 640 km, 98.2° (Epoch: 28 January)

Event Time Altitude Azimuth Distance (km) Brightness Sun altitude
Rises 17:07:10 0° 161° (SSE) 2,934 6.0 -14.1°
Reaches altitude 10° 17:09:22 10° 161° (SSE) 2,029 5.2 -14.4°
Maximum altitude 17:13:47 80° 74° (ENE) 656 2.5 -15.1°
Drops below altitude 10° 17:18:15 10° 348° (NNW) 2,045 5.2 -15.9°
Sets 17:20:28 0° 348° (NNW) 2,959 6.0 -16.2°
